Home   Weather   Yangon   Past weeks

Flag for Myanmar Past Weather in Yangon, Myanmar — Yesterday and Last 2 Weeks

Now
82 °F

Passing clouds.


Feels Like: 88 °F
Forecast: 78 / 95 °F
Wind: 9 mph from Southwest

Location: Rangoon Airport

Current Time: Apr 25, 2017 at 1:34:47 am

Latest Report: Apr 24, 2017 at 11:30 pm


Visibility: 4 mi

Pressure: 29.86 "Hg

Humidity: 74%

Dew Point: 73 °F

Location of YangonLocation

Past Weather in Yangon — Graph

°F

Yangon Temperature Yesterday

Maximum temperature yesterday: 95 °F (at 1:00 pm)
Minimum temperature yesterday: 77 °F (at 5:00 am)
Average temperature yesterday: 87 °F

High & Low Weather Summary for the Past Weeks

 TemperatureHumidityPressure
High102 °F (Apr 10, 2:30 pm)100% (Apr 15, 1:00 pm)29.92 "Hg (Apr 15, 1:00 pm)
Low73 °F (Apr 15, 11:30 pm)29% (Apr 10, 2:30 pm)29.65 "Hg (Apr 10, 4:00 pm)
Average86 °F69%29.79 "Hg
* Reported Apr 9 11:30 pm — Apr 24 11:30 pm, Yangon, Weather by CustomWeather, © 2017

Note: Actual official high and low records may vary slightly from our data, if they occured in-between our weather recording intervals... More about our weather records

Advertising

Yangon Weather History for the Previous 24 Hours

Scroll right to see more
 ConditionsComfort  
Time TempWeatherWind HumidityBarometerVisibility
11:30 pm
Mon, Apr 24
82 °FPassing clouds.9 mph74%29.86 "Hg4 mi
10:30 pm82 °FPassing clouds.9 mph74%29.86 "Hg4 mi
10:00 pm84 °FPassing clouds.9 mph66%29.83 "Hg4 mi
9:30 pm84 °FPassing clouds.9 mph66%29.83 "Hg4 mi
9:00 pm84 °FPassing clouds.9 mph66%29.80 "Hg4 mi
8:30 pm86 °FPassing clouds.9 mph62%29.80 "Hg4 mi
8:00 pm86 °FPassing clouds.9 mph62%29.80 "Hg4 mi
7:30 pm86 °FPassing clouds.9 mph62%29.80 "Hg4 mi
7:00 pm86 °FPartly cloudy.6 mph62%29.77 "Hg4 mi
6:30 pm88 °FScattered clouds.3 mph52%29.77 "Hg4 mi
6:00 pm90 °FScattered clouds.3 mph49%29.74 "Hg4 mi
5:30 pm91 °FScattered clouds.3 mph49%29.74 "Hg4 mi
5:00 pm91 °FScattered clouds.3 mph49%29.74 "Hg4 mi
4:30 pm91 °FPartly sunny.5 mph49%29.74 "Hg4 mi
4:00 pm91 °FPartly sunny.3 mph49%29.74 "Hg4 mi
3:30 pm91 °FPartly sunny.5 mph49%29.74 "Hg4 mi
3:00 pm91 °FPartly sunny.6 mph52%29.77 "Hg4 mi
2:30 pm95 °FPartly sunny.6 mph50%29.77 "Hg4 mi
2:00 pm95 °FBroken clouds.9 mph50%29.77 "Hg5 mi
1:30 pm95 °FBroken clouds.5 mph50%29.80 "Hg5 mi
1:00 pm95 °FBroken clouds.7 mph50%29.83 "Hg5 mi
12:30 pm93 °FBroken clouds.7 mph56%29.83 "Hg5 mi
12:00 pm93 °FBroken clouds.8 mph56%29.86 "Hg5 mi
11:30 am91 °FScattered clouds.6 mph52%29.86 "Hg5 mi
11:00 am91 °FScattered clouds.3 mph52%29.89 "Hg5 mi
10:00 am88 °FScattered clouds.9 mph66%29.92 "Hg5 mi
9:00 am86 °FScattered clouds.8 mph70%29.92 "Hg5 mi
8:30 am82 °FScattered clouds.6 mph74%29.92 "Hg4 mi
8:00 am82 °FPassing clouds.5 mph74%29.92 "Hg4 mi
7:30 am81 °FHaze.5 mph84%29.89 "Hg4 mi
6:30 am77 °FScattered clouds.5 mph94%29.86 "Hg4 mi
6:00 am77 °FPassing clouds.3 mph94%29.86 "Hg4 mi
5:30 am77 °FPassing clouds.3 mph94%29.83 "Hg4 mi
5:00 am77 °FPassing clouds.2 mph94%29.83 "Hg4 mi
4:30 am79 °FPassing clouds.2 mph89%29.80 "Hg4 mi
1:00 am81 °FPassing clouds.6 mph84%29.80 "Hg4 mi
Weather by CustomWeather, © 2017

See weather overviewHow to use our weather pages